Location: Kellogg
(38.0159°N, 90.0546°W)
Time: 16:05:40
(UTC+00:00)

Courier 1B - Pass Details

Date: 15 September 2024
Orbit: 962 x 1208 km, 28.3° (Epoch: 11 October)

Event Time Altitude Azimuth Distance (km) Brightness Sun altitude
Rises 00:57:23 0° 264° (W) 4,068 12.4 -10.3°
Reaches altitude 10° 01:00:47 10° 252° (WSW) 3,124 11.1 -11.0°
Maximum altitude 01:06:47 25° 201° (SSW) 2,234 9.5 -12.1°
Drops below altitude 10° 01:12:49 10° 150° (SSE) 3,127 9.7 -13.3°
Enters shadow 01:13:56 - 145° (SE) 3,421 9.9 -13.5°
